Regional Weather Roundup
Issued by NWS

Home | Current Version | Previous Version | Text Only | Print | Product List | Glossary On
Versions: 1 2 3 4 5 6 7 8 9 10 11 12 13 14 15 16 17 18 19 20 21 22 23 24 25 26 27 28 29 30 31 32 33 34 35 36 37 38 39 40 41 42 43 44 45 46 47 48 49 50
000
ASHW40 PHFO 191112
RWRHI

WEATHER ROUNDUP FOR HAWAII
NATIONAL WEATHER SERVICE HONOLULU HI
100 AM HST THU OCT 19 2017

THIS IS AN AUTOMATED REPORT THAT HAS NOT BEEN QUALITY CONTROLLED.

NOTE..."FAIR" INDICATES FEW OR NO CLOUDS BELOW 12,000 FEET WITH NO
SIGNIFICANT WEATHER AND/OR OBSTRUCTIONS TO VISIBILITY.

* - THESE SITES REPORT LIMITED FIELDS
# - BUOY DATA PROVIDED BY PACIFIC ISLANDS OCEAN OBSERVING SYSTEM.

HIZ001>004-191200-
KAUAI-NIIHAU-

CITY           SKY/WX    TMP DP  RH WIND       PRES   REMARKS
LIHUE APT      PTCLDY    77  70  79 NE21      30.14S
PORT ALLEN*      N/A     73 N/A N/A NE16G23     N/A
POIPU*           N/A     73 N/A N/A NE9G20      N/A
PRINCEVILLE*     N/A     75 N/A N/A E12G22      N/A
KOKOLE POINT*  NOT AVBL
MOLOAA DAIRY*    N/A     75  68  78 E7G15       N/A
WAIMEA HTS*    NOT AVBL
PUU OPAE*      NOT AVBL
PUU LUA*       NOT AVBL
MAKAHA RIDGE*  NOT AVBL
$$

HIZ005>011-191200-
OAHU-

CITY           SKY/WX    TMP DP  RH WIND       PRES   REMARKS
HONOLULU       PTCLDY    77  63  61 E9G21     30.10F
KALAELOA       PTCLDY    75  64  68 E5        30.12S
KANEOHE MCB    MOCLDY    79  68  69 E7G21     30.09F
WHEELER FIELD  FAIR      72  65  80 E12       30.11F
BELLOWS*       NOT AVBL
KAHUKU*        NOT AVBL
WHEELER*       NOT AVBL
WAIANAE HARBOR NOT AVBL
DILLINGHAM*      N/A     70  66  88 NW1         N/A
KAHUKU TRN*      N/A     68  59  73 W13G25      N/A
KAWAILOA*        N/A     72  64  78 E12G25      N/A
KII*             N/A     77  68  73 E23G31      N/A
MAKUA RANGE*     N/A     75  68  78 W3G10       N/A
OAHU FOREST NW NOT AVBL
SCHOFIELD BRK*   N/A     70  66  88 MISG        N/A
SCHOFIELD S*   NOT AVBL
WAIANAE VLY*   NOT AVBL
KUAOKALA*      NOT AVBL
HONOULIUULI*   NOT AVBL
MOKUOLOE IS*   NOT AVBL
PALEHUA*       NOT AVBL
WAIAWA PHB*    NOT AVBL
$$

HIZ012>013-191200-
MOLOKAI-

CITY           SKY/WX    TMP DP  RH WIND       PRES   REMARKS
MOLOKAI AIRPT  PTCLDY    75  66  73 NE16      30.11F
KALAUPAPA      NOT AVBL
MAKAPULAPAI*   NOT AVBL
MOLOKAI 1*     NOT AVBL
PUU ALII*      NOT AVBL
$$

HIZ016-191200-
KAHOOLAWE-

CITY           SKY/WX    TMP DP  RH WIND       PRES   REMARKS
KAHOOLAWE*     NOT AVBL
HAKIOAWA*      NOT AVBL
HONOKANAIA*      N/A     78  64  60 NE8G37    30.04R
KANELOA*         N/A     75  66  73 E21G41    30.15R
KEALIALALO*    NOT AVBL
LUA MAKIKA*    NOT AVBL
$$

HIZ014>015-191200-
LANAI-

CITY           SKY/WX    TMP DP  RH WIND       PRES   REMARKS
LANAI CITY     FAIR      70  62  76 SE7       30.14F
LANAI 1*       NOT AVBL
$$

HIZ017>028-191200-
MAUI-

CITY           SKY/WX    TMP DP  RH WIND       PRES   REMARKS
KAHULUI        PTCLDY    76  66  71 NE10      30.09F
KAPALUA-W MAUI NOT AVBL
HANA AIRPORT   NOT AVBL
HANA*            N/A     72 N/A N/A SE1         N/A
HALEAKALA SUMM   N/A     50   5  16 NE23G44     N/A
MAALAEA BAY*   NOT AVBL
HALEAKALA*     NOT AVBL
KAUPO GAP*     NOT AVBL
KULA 1*          N/A     46  37  71 E3          N/A
$$

HIZ023>026-191200-
BIG ISLAND OF HAWAII COAST AND LOWER SLOPES-

CITY           SKY/WX    TMP DP  RH WIND       PRES   REMARKS
KAILUA KONA    CLEAR     76  60  57 N3        30.02F
HILO           CLOUDY    71  69  93 W10       30.11F
HONOKAA*         N/A     68 N/A N/A VRB1        N/A
KAWAIHAE MWT*    N/A     79 N/A N/A E15G29      N/A
KAWAIHAE*      NOT AVBL
SOUTH POINT*     N/A     73 N/A N/A VRB23G35    N/A
UPOLU AIRPORT* NOT AVBL
KAMUELA*         N/A     63  59  88 NE17G32   30.15S
HAKALAU*         N/A     43  43 100 SW3         N/A
KALOKO-HONOKO* NOT AVBL
PALI 2*          N/A     63  54  72 S21G31      N/A
KEALAKOMO*       N/A    N/A N/A N/A VRB20G32    N/A
KAUPULEHU*     NOT AVBL
KAPAPALA*        N/A     70  52  53 N12G26      N/A
LOWER KAHUKU*  NOT AVBL
PUHE CS*       NOT AVBL
PUHO CS*       NOT AVBL
PTA KEAMUKU*     N/A     59  54  82 SE12G18     N/A
WAIKOLOA*      NOT AVBL
$$

HIZ027>028-191200-
BIG ISLAND OF HAWAII INTERIOR AND SUMMMITS-

CITY           SKY/WX    TMP DP  RH WIND       PRES   REMARKS
BRADSHAW FIELD CLOUDY    48  45  89 SE6       30.36F
MK VISITOR CEN   N/A     59  -2   8 N18         N/A
MAUNA KEA*       N/A     41 -20   7 NE30        N/A
MAUNA LOA*     NOT AVBL
MAUNA LOA 1*   NOT AVBL
PTA KIPUKA*      N/A     48  46  93 W3          N/A
PTA RANGE 17*    N/A     54  46  76 W13G28      N/A
PTA WEST*        N/A     73  63  68 SE15G22     N/A
NENE CABIN*    NOT AVBL
AHUMOA*        NOT AVBL
PTA PORTABLE*  NOT AVBL
PUU MALI*        N/A     59  32  36 E21G35      N/A
$$

HIC003-191200-
NORTHWEST ISLANDS-

CITY           SKY/WX    TMP DP  RH WIND       PRES   REMARKS
MIDWAY ISLAND  MOCLDY    77  72  83 E17       30.26S
MIDWAY NOS*    NOT AVBL
FRENCH FRIGATE NOT AVBL
$$

PHZ110>124-180-191200-
BUOY REPORTS

STATION/POSITION TIME  TEMP    WIND        PRES    WAVE   SWELL
                       AIR SEA DIR/SP/G            HT/PER HT/DIR
                 (UTC) (F)     (DEG/KT/KT) (MB)    (FT/S) (FT/D)
BUOY 51001       1050   78 81   70/ 21/ 25 1022.1F  10/10   5/ 90
BUOY 51101       1050   78 80   70/ 21/ 27 1022.1F  10/ 9   5/ 90
BUOY 51100       NOT AVBL
BUOY 51002       1050   80 80   70/ 21/ 27 1015.6F  10/ 8   5/130
BUOY 51003       1050   80 81   70/ 16/ 19 1017.2F  10/ 8   8/ 80
BUOY 51004       1050   79 80   50/ 17/ 21 1016.4F   8/ 8   3/ 90
WAIMEA BAY#      1002      78                N/A     8/ 8   2/360
MOKAPU POINT#    1004      80                N/A     9/ 8   2/ 20
LANAI#           NOT AVBL
BARBERS PT 2#    NOT AVBL
PAUWELA#         NOT AVBL
HILO#            1057      80                N/A     7/ 8   2/350
KANEOHE BAY#     NOT AVBL
KANEOHE BAY 2#   NOT AVBL
HANALEI#         1052      81                N/A    10/ 9   2/ 50
KAHULUI HARBOR   NOT AVBL
HONOLULU HARBOR  NOT AVBL
PEARL HARBOR#    1030      80                N/A     3/ 6   2/150
KILO NALU        NOT AVBL
HILO HARBOR      NOT AVBL
MOKUOLOE         NOT AVBL
NAWILIWILI       NOT AVBL
WHOTS BUOY       NOT AVBL
BUOY 51028       NOT AVBL
$$

......................KEY........................................
  SKY/WX - SKY CONDITIONS/PRESENT WEATHER
  TMP    - TEMPERATURE IN FAHRENHEIT
  DWPT   - DEWPOINT IN FAHRENHEIT
  RH     - RELATIVE HUMIDITY IN PERCENT
  WIND   - DIRECTION AND SPEED /MPH FOR ISLANDS...KTS FOR BUOYS/
  PRES   - MEAN SEA LEVEL PRESSURE IN INCHES OF HG
  VSB    - VISIBILITY IN MILES
  HX     - HEAT INDEX
  WCI    - WIND CHILL INDEX
  VRB    - VARIABLE WIND DIRECTION
  N/A    - NOT AVAILABLE



USA.gov is the U.S. government's official web portal to all federal, state and local government web resources and services.